Home > Weather > Da Nang > Past weeks

Flag for Vietnam Past Weather in Da Nang, Vietnam — Yesterday and Last 2 Weeks

Now
84 °F

Broken clouds.


Feels Like: 94 °F
Forecast: 80 / 92 °F
Wind: 2 mph from Northwest

Location: Da Nang Airport

Current Time: May 26, 2016 at 7:45:06 AM

Latest Report: May 26, 2016 at 7:00 AM


Visibility: N/A

Pressure: 29.71 "Hg

Humidity: 79%

Dew Point: 77 °F

Location of Da NangLocation

Past Weather in Da Nang — Graph

°F

Da Nang Temperature Yesterday

Maximum temperature yesterday: 95 °F (at 11:30 AM)
Minimum temperature yesterday: 79 °F (at 1:30 AM)
Average temperature yesterday: 83 °F

High & Low Weather Summary for the Past Weeks

 TemperatureHumidityPressure
High99 °F (May 20, 12:00 PM)100% (May 24, 12:30 AM)29.92 "Hg (May 24, 12:30 AM)
Low73 °F (May 17, 4:30 AM)38% (May 17, 11:00 AM)29.59 "Hg (May 20, 3:00 PM)
Average84 °F78%29.77 "Hg
* Reported May 11 6:00 AM — May 26 6:30 AM, Da Nang, Weather by CustomWeather, © 2016

Note: Actual official high and low records may vary slightly from our data, if they occured in-between our weather recording intervals... More about our weather records

Advertising

Da Nang Weather History for the Previous 24 Hours

Scroll right to see more
 ConditionsComfort  
Time TempWeatherWind HumidityBarometerVisibility
6:30 AM
Thu, May 26
81 °FBroken clouds.1 mph89%29.68 "Hg5 mi
6:00 AM79 °FBroken clouds.1 mph94%29.68 "Hg4 mi
5:30 AM79 °FBroken clouds.1 mph94%29.68 "Hg4 mi
5:00 AM79 °FPassing clouds.1 mph94%29.65 "Hg4 mi
4:30 AM79 °FPassing clouds.1 mph94%29.65 "Hg4 mi
4:00 AM79 °FPassing clouds.1 mph94%29.65 "Hg4 mi
3:30 AM79 °FPassing clouds.1 mph94%29.65 "Hg4 mi
3:00 AM79 °FPassing clouds.2 mph94%29.65 "Hg4 mi
2:30 AM79 °FPassing clouds.2 mph94%29.65 "Hg4 mi
2:00 AM79 °FPassing clouds.No wind94%29.68 "Hg4 mi
1:30 AM79 °FPassing clouds.2 mph94%29.68 "Hg4 mi
1:00 AM79 °FPassing clouds.2 mph94%29.68 "Hg4 mi
12:30 AM79 °FPassing clouds.5 mph94%29.68 "Hg4 mi
12:00 AM79 °FPassing clouds.3 mph94%29.71 "Hg4 mi
11:30 PM
Wed, May 25
79 °FPassing clouds.2 mph94%29.71 "Hg4 mi
11:00 PM79 °FPassing clouds.2 mph94%29.71 "Hg4 mi
10:30 PM79 °FPassing clouds.2 mph94%29.74 "Hg4 mi
10:00 PM79 °FPassing clouds.2 mph94%29.74 "Hg4 mi
9:30 PM79 °FPassing clouds.2 mph94%29.74 "Hg4 mi
9:00 PM79 °FPassing clouds.1 mph94%29.71 "Hg4 mi
8:30 PM79 °FPassing clouds.1 mph94%29.71 "Hg4 mi
8:00 PM79 °FPassing clouds.1 mph94%29.71 "Hg5 mi
7:30 PM79 °FPassing clouds.5 mph94%29.71 "Hg5 mi
7:00 PM79 °FLight rain. Passing clouds.1 mph94%29.68 "Hg5 mi
6:30 PM79 °FLight rain. Passing clouds.2 mph94%29.68 "Hg5 mi
6:00 PM79 °FLight rain. Broken clouds.2 mph94%29.68 "Hg4 mi
5:00 PM79 °FThunderstorms. Broken clouds.2 mph94%29.68 "Hg2 mi
4:30 PM79 °FThunderstorms. Broken clouds.1 mph94%29.68 "Hg3 mi
4:00 PM79 °FThunderstorms. Broken clouds.3 mph100%29.68 "Hg2 mi
3:30 PM79 °FStrong thunderstorms. Broken clouds.12 mph94%29.68 "Hg1 mi
3:00 PM82 °FThunderstorms. Broken clouds.6 mph94%29.68 "Hg2 mi
2:30 PM84 °FThunderstorms. Partly sunny.8 mph89%29.65 "Hg2 mi
2:00 PM88 °FPartly sunny.12 mph75%29.65 "Hg4 mi
1:30 PM90 °FPartly sunny.13 mph71%29.62 "Hg4 mi
1:00 PM91 °FPartly sunny.13 mph67%29.65 "HgN/A
12:30 PM90 °FBroken clouds.14 mph71%29.65 "HgN/A
12:00 PM91 °FBroken clouds.9 mph67%29.65 "HgN/A
11:30 AM95 °FBroken clouds.2 mph60%29.68 "HgN/A
11:00 AM91 °FBroken clouds.3 mph67%29.68 "HgN/A
10:30 AM91 °FPartly sunny.5 mph63%29.68 "HgN/A
10:00 AM91 °FPartly sunny.5 mph67%29.71 "HgN/A
9:30 AM91 °FPartly sunny.3 mph67%29.71 "HgN/A
9:00 AM90 °FPartly sunny.5 mph71%29.71 "HgN/A
8:30 AM90 °FPartly sunny.2 mph71%29.71 "HgN/A
8:00 AM90 °FPartly sunny.1 mph71%29.71 "HgN/A
7:30 AM86 °FPartly sunny.3 mph79%29.71 "HgN/A
7:00 AM86 °FScattered clouds.2 mph75%29.68 "HgN/A
Weather by CustomWeather, © 2016

See weather overviewHow to use our weather pages